This demonstration page uses our WeatherBlox Daily Observations layout. Learn more.

Left ArrowRight Arrow

Hourly Observations for October 26, 2018

Temp ( °F °C ) Dew Point ( °F °C ) Humidity (%) Winds ( mph kmh ) Pressure ( in mb ) Visibility ( mi km ) Precip ( " mm )
12:51 am 00:51 Clear 59 15 49 9.4 69 69 Calm 29.94 1014 10 16 0.00 0.00
1:51 am 01:51 Clear 55 12.8 49 9.4 80 80 NNE 3 6 29.95 1014 10 16 0.00 0.00
2:51 am 02:51 Mostly Clear 55 12.8 49 9.4 80 80 E 6 9 29.94 1014 10 16 0.00 0.00
3:51 am 03:51 Clear 54 12.2 49 9.4 83 83 Calm 29.95 1014 10 16 0.00 0.00
4:51 am 04:51 Clear 53 11.7 49 9.4 86 86 S 3 6 29.97 1015 10 16 0.00 0.00
5:51 am 05:51 Clear 52 11.1 49 9.4 89 89 Calm 29.99 1016 10 16 0.00 0.00
6:51 am 06:51 Sunny 50 10 48 8.9 93 93 Calm 30.02 1017 10 16 0.00 0.00
7:51 am 07:51 Sunny 58 14.4 49 9.4 72 72 Calm 30.03 1017 10 16 0.00 0.00
8:51 am 08:51 Sunny 62 16.7 49 9.4 62 62 Calm 30.05 1018 10 16 0.00 0.00
9:51 am 09:51 Sunny 66 18.9 49 9.4 54 54 Calm 30.05 1018 10 16 0.00 0.00
10:51 am 10:51 Sunny 69 20.6 49 9.4 49 49 Calm 30.04 1017 10 16 0.00 0.00
11:51 am 11:51 Sunny 73 22.8 47 8.3 40 40 NW 6 9 30.00 1016 10 16 0.00 0.00
12:51 pm 12:51 Sunny 76 24.4 43 6.1 31 31 WNW 6 9 29.96 1015 10 16 0.00 0.00
1:51 pm 13:51 Sunny 77 25 41 5 28 28 Calm 29.95 1014 10 16 0.00 0.00
2:51 pm 14:51 Sunny 80 26.7 36 2.2 20 20 WNW 9 15 29.92 1013 10 16 0.00 0.00
3:51 pm 15:51 Sunny 78 25.6 36 2.2 22 22 W 10 17 29.92 1013 10 16 0.00 0.00
4:51 pm 16:51 Sunny 77 25 35 1.7 22 22 WNW 10 17 29.92 1013 10 16 0.00 0.00
5:51 pm 17:51 Clear 71 21.7 39 3.9 31 31 WNW 7 11 29.94 1014 10 16 0.00 0.00
6:51 pm 18:51 Clear 64 17.8 44 6.7 48 48 NW 7 11 29.97 1015 10 16 0.00 0.00
7:51 pm 19:51 Clear 65 18.3 42 5.6 43 43 NNW 8 13 29.96 1015 10 16 0.00 0.00
8:51 pm 20:51 Clear 64 17.8 41 5 43 43 N 6 9 29.97 1015 10 16 0.00 0.00
9:51 pm 21:51 Clear 58 14.4 45 7.2 62 62 Calm 29.99 1016 10 16 0.00 0.00
10:51 pm 22:51 Clear 59 15 46 7.8 62 62 SSE 6 9 29.98 1015 10 16 0.00 0.00
11:51 pm 23:51 Clear 56 13.3 45 7.2 67 67 ESE 5 7 29.99 1016 10 16 0.00 0.00

Powered by AerisWeather